Overview Statistics Trail Chart Weather Telemetry Raw packets
 

This is the latest recevied weather packets stored in our database for station/object K7KAR-2. If no packets are shown the sender has not sent any weather packets the latest 10 day(s).

<< 10 11 12 13 14 15 16 >>
Time Temp. Humidity Pressure Rain* Wind** Luminosity Snow
1788545096 28.89° C 21% 1008.9 hPa 0 mm - 839 W/m² -
1788544796 28.89° C 20% 1008.8 hPa 0 mm - 833 W/m² -
1788544490 28.33° C 21% 1008.8 hPa 0 mm - 826 W/m² -
1788544190 28.33° C 21% 1008.7 hPa 0 mm - 823 W/m² -
1788543885 27.78° C 22% 1008.7 hPa 0 mm - 814 W/m² -
1788543581 27.22° C 22% 1008.7 hPa 0 mm - 808 W/m² -
1788543276 27.22° C 22% 1008.7 hPa 0 mm - 799 W/m² -
1788542971 27.22° C 23% 1008.7 hPa 0 mm - 790 W/m² -
1788542666 26.67° C 23% 1008.9 hPa 0 mm - 784 W/m² -
1788542361 26.11° C 23% 1008.6 hPa 0 mm - 774 W/m² -
1788542056 26.67° C 23% 1008.5 hPa 0 mm - 763 W/m² -
1788541753 26.11° C 23% 1008.8 hPa 0 mm - 752 W/m² -
1788541447 26.11° C 23% 1008.7 hPa 0 mm - 743 W/m² -
1788541143 25.56° C 23% 1008.7 hPa 0 mm - 731 W/m² -
1788540842 25° C 25% 1008.7 hPa 0 mm - 720 W/m² -
1788540541 25° C 25% 1008.7 hPa 0 mm - 707 W/m² -
1788540241 25° C 25% 1008.7 hPa 0 mm - 695 W/m² -
1788539937 24.44° C 25% 1008.8 hPa 0 mm - 684 W/m² -
1788539637 24.44° C 26% 1008.7 hPa 0 mm - 668 W/m² -
1788539336 23.89° C 27% 1008.7 hPa 0 mm - 649 W/m² -
1788539032 23.33° C 28% 1008.6 hPa 0 mm - 641 W/m² -
1788538727 23.89° C 28% 1008.6 hPa 0 mm - 623 W/m² -
1788538422 23.33° C 28% 1008.5 hPa 0 mm - 608 W/m² -
1788538118 23.33° C 28% 1008.5 hPa 0 mm - 594 W/m² -
1788537813 22.78° C 29% 1008.5 hPa 0 mm - 577 W/m² -

* Rain latest hour (hover to see other rain measurements)
** Current wind speed in m/s (hover to see current wind gust speed)